BGGH

Godthaab / Nuuk Airport

Nuuk, Greenland
Issued Wind Visibility Ceiling Temperature Dew Point Humidity Barometer
Aug-20
22:50 UTC
300°
2 KTS
306 meters Vertical visibility
200' AGL
C
41° F
C
41° F
100% 29.91" Hg
1013 hPa
LIFR
Aug-20
21:50 UTC
210°
6 KTS
306 meters Vertical visibility
200' AGL
C
41° F
C
41° F
100% 29.91" Hg
1013 hPa
LIFR
Aug-20
20:50 UTC
200°
18 KTS
1,400 meters Broken
200' AGL
C
41° F
C
41° F
100% 29.91" Hg
1013 hPa
LIFR
Aug-20
19:50 UTC
180°
16 KTS
2,704 meters Broken
400' AGL
C
43° F
C
43° F
100% 29.91" Hg
1013 hPa
LIFR
Aug-20
18:50 UTC
170°
22 KTS
3,492 meters Broken
500' AGL
C
43° F
C
43° F
100% 29.91" Hg
1013 hPa
IFR
Aug-20
17:50 UTC
170°
17 KTS
3,492 meters Broken
400' AGL
C
43° F
C
43° F
100% 29.91" Hg
1013 hPa
LIFR
Aug-20
16:50 UTC
190°
10 KTS
1,996 meters Broken
200' AGL
C
43° F
C
43° F
100% 29.91" Hg
1013 hPa
LIFR
Aug-20
15:50 UTC
350°
4 KTS
3,396 meters Broken
200' AGL
C
43° F
C
43° F
100% 29.91" Hg
1013 hPa
LIFR
Aug-20
14:50 UTC
020°
7 KTS
7,001 meters Broken
200' AGL
C
43° F
C
43° F
100% 29.91" Hg
1013 hPa
LIFR
Aug-20
13:50 UTC
Varies @4 KTS 4,007 meters Vertical visibility
600' AGL
C
43° F
C
43° F
100% 29.91" Hg
1013 hPa
LIFR
Aug-20
12:50 UTC
Varies @2 KTS 692 meters Vertical visibility
400' AGL
C
43° F
C
43° F
100% 29.91" Hg
1013 hPa
LIFR
Aug-20
11:50 UTC
Varies @3 KTS 805 meters Broken
300' AGL
C
41° F
C
41° F
100% 29.91" Hg
1013 hPa
LIFR
Aug-20
10:50 UTC
280°
2 KTS
1,497 meters Broken
600' AGL
C
41° F
C
41° F
100% 29.91" Hg
1013 hPa
LIFR
Aug-20
09:50 UTC
Varies @7 KTS 2,494 meters Broken
1,600' AGL
C
41° F
C
41° F
100% 29.91" Hg
1013 hPa
IFR
Aug-20
08:50 UTC
200°
9 KTS
1,497 meters   C
41° F
C
41° F
100% 29.88" Hg
1012 hPa
LIFR
Aug-20
07:50 UTC
190°
11 KTS
  Broken
200' AGL
C
39° F
C
39° F
100% 29.88" Hg
1012 hPa
Aug-20
06:50 UTC
200°
13 KTS
  Broken
200' AGL
C
41° F
C
41° F
100% 29.85" Hg
1011 hPa
Aug-20
05:50 UTC
190°
11 KTS
    C
41° F
C
41° F
100% 29.85" Hg
1011 hPa
Aug-20
04:50 UTC
190°
12 KTS
    C
41° F
C
41° F
100% 29.82" Hg
1010 hPa
Aug-20
03:50 UTC
190°
19 KTS
  Broken
200' AGL
C
41° F
C
41° F
100% 29.79" Hg
1009 hPa
Aug-20
02:50 UTC
190°
19 KTS
  Broken
200' AGL
C
43° F
C
43° F
100% 29.79" Hg
1009 hPa
Aug-20
01:50 UTC
170°
27 KTS
  Broken
600' AGL
C
43° F
C
43° F
100% 29.76" Hg
1008 hPa
Aug-20
00:50 UTC
170°
30 KTS
  Broken
800' AGL
C
43° F
C
43° F
100% 29.76" Hg
1008 hPa
Aug-19
23:50 UTC
170°
34 KTS
Gust 44 KTS
3,492 meters Overcast
2,000' AGL
C
43° F
C
43° F
100% 29.73" Hg
1007 hPa
IFR